Theta_e
285 286 285 287 286 286 286 286 286 286 287 286 285 286 287 288 283 282 286 288 287 289 302 307 308 309 309 310 311 312 314 315 316 316 316 317 317 318 319 320 322 323 324 326 328 331 335 338 340 342 341 339 340 340 340 340 341 341 342 341 341 341 342 342 343 345 346 346 347 347 347 347 346 346 345 345 345 344 344 344 344 344 345 345 345 346 348
285 285 286 287 286 286 286 286 287 286 286 286 287 286 287 287 286 288 288 289 289 294 304 308 309 310 310 310 312 312 312 313 315 315 315 316 317 318 319 320 321 323 323 325 327 329 332 334 337 340 342 344 340 340 340 340 341 342 343 342 341 341 341 343 344 346 347 348 348 348 347 347 347 347 347 347 345 345 344 344 345 346 346 347 346 346 347
283 285 289 286 286 287 284 285 286 286 286 286 286 287 289 293 290 291 293 291 290 298 306 307 311 311 311 310 309 310 311 312 314 313 314 316 317 317 319 319 321 322 323 324 326 328 330 332 335 337 339 342 344 343 341 341 342 343 343 343 343 342 342 344 345 346 347 348 348 348 348 348 348 348 348 348 347 346 346 345 345 346 346 346 346 347 347
279 283 285 285 286 285 283 282 284 284 286 286 287 287 290 289 287 292 295 291 296 303 305 307 309 309 308 307 308 309 310 312 313 313 314 315 316 319 319 319 320 321 322 324 325 327 329 332 334 335 337 339 342 343 345 344 343 344 344 344 343 343 344 345 346 346 347 348 348 348 349 349 349 349 349 348 348 347 346 345 346 346 345 345 346 347 347
277 280 285 285 283 279 279 283 285 287 287 289 289 290 294 301 301 296 294 294 303 303 305 302 304 308 307 307 308 308 310 311 312 313 314 314 316 318 319 319 319 320 322 324 325 326 329 331 333 336 338 338 339 341 345 345 348 346 345 345 345 345 345 346 346 347 348 348 348 349 349 350 350 350 349 349 348 347 346 347 347 346 345 345 346 347 347
277 281 283 285 277 274 275 285 290 290 287 289 287 288 293 301 302 300 303 303 305 303 302 301 302 305 307 307 309 312 310 310 311 313 314 315 316 316 318 319 319 320 322 324 326 328 330 332 334 336 338 338 339 343 345 347 346 349 347 347 346 346 347 347 347 348 348 348 348 349 350 350 350 350 349 349 349 349 349 349 347 346 346 346 346 347 347
279 280 282 279 273 274 283 290 293 294 291 292 289 290 298 301 301 303 302 303 303 304 303 303 304 305 310 310 309 310 311 312 311 311 312 314 315 316 316 318 319 320 321 323 325 327 330 332 333 333 334 337 340 341 344 347 346 347 350 348 348 348 348 348 349 349 349 349 349 350 350 351 350 350 350 350 350 350 349 348 348 347 347 346 347 347 347
279 278 276 269 273 281 288 290 295 299 296 296 294 292 297 300 300 301 300 302 304 304 304 305 305 305 307 312 311 309 310 313 312 311 312 313 314 315 316 317 319 320 321 323 324 326 332 332 331 332 333 336 339 340 344 348 347 346 346 350 350 350 350 350 350 351 350 350 350 351 351 351 351 351 351 350 350 350 350 350 350 349 350 349 348 348 348
276 278 276 277 283 284 286 291 292 293 290 292 291 287 291 298 300 300 300 301 303 303 304 304 305 306 307 308 307 309 309 310 313 314 314 314 315 316 318 318 320 323 323 324 326 328 330 330 330 330 332 335 338 340 342 345 348 347 346 346 347 350 354 353 353 353 353 352 352 352 353 352 351 351 351 351 352 353 351 351 350 349 349 349 350 350 350
280 277 276 276 275 274 279 289 297 299 298 297 297 293 289 298 298 300 300 300 301 302 303 303 304 305 308 303 304 307 308 310 311 314 316 316 316 316 318 320 320 322 324 325 327 328 329 328 329 329 331 335 336 339 341 343 342 350 347 347 348 350 350 352 354 356 356 355 354 354 353 352 351 351 351 351 351 350 350 351 350 350 350 350 351 351 350
280 279 276 273 272 278 284 290 295 297 298 298 297 291 285 295 296 298 299 299 300 301 301 303 303 300 297 298 302 305 308 309 311 311 314 316 316 317 317 319 320 321 323 325 325 326 327 326 327 328 329 331 334 337 338 339 341 342 340 343 345 347 349 351 353 354 355 355 355 354 353 352 351 350 350 350 351 350 349 348 349 352 352 351 351 352 351
281 280 276 276 280 277 286 291 295 297 297 298 291 279 280 293 295 298 299 299 300 301 302 304 301 299 295 297 301 307 308 309 310 311 312 313 316 317 318 318 322 323 325 325 324 323 324 324 326 327 327 327 330 333 335 338 338 336 336 338 340 344 345 350 352 352 353 354 353 353 352 352 352 351 352 352 351 350 350 349 349 350 351 352 351 351 352
285 285 278 279 282 289 293 293 296 296 298 293 282 278 286 293 295 298 300 300 301 302 301 302 298 302 303 304 306 308 309 308 309 310 312 314 316 317 318 317 322 323 323 323 323 323 324 325 326 324 324 324 326 328 331 332 333 333 335 337 338 340 343 345 347 352 352 352 352 352 353 352 352 353 353 353 353 351 349 350 351 351 351 351 351 351 352
280 280 280 279 282 286 292 295 296 298 292 281 279 290 294 293 296 299 300 300 301 301 301 300 300 302 304 306 306 307 307 307 308 309 311 312 313 316 318 319 321 322 322 323 323 324 323 322 325 323 323 322 323 325 327 328 328 329 332 334 337 338 340 342 346 349 353 355 353 352 353 353 352 353 355 356 355 354 353 352 352 351 352 351 351 351 352
282 281 281 279 275 285 296 296 294 297 286 285 291 294 296 300 299 299 299 300 300 301 299 301 301 301 301 302 304 306 307 307 307 308 309 310 311 313 315 316 318 320 320 321 322 322 323 322 324 322 322 322 322 324 324 325 326 328 330 333 335 337 339 341 345 349 352 355 357 355 353 353 353 353 355 356 356 356 355 354 352 351 351 351 351 350 351
278 279 278 279 285 290 296 292 286 291 295 295 296 295 293 298 299 298 298 298 299 300 299 299 299 300 300 301 303 305 306 307 307 308 309 310 311 312 314 316 318 320 320 321 322 323 322 323 323 322 322 321 322 322 323 324 325 327 329 331 334 335 338 341 344 347 350 352 355 358 358 356 355 354 356 357 356 356 355 354 352 351 351 351 351 350 349
282 280 283 288 290 294 296 294 292 294 296 297 297 297 297 298 297 299 297 297 298 298 299 299 299 298 300 301 302 303 305 306 307 307 308 309 310 311 313 315 318 319 319 320 321 322 323 322 323 322 322 321 321 321 322 323 325 326 327 329 331 334 336 339 342 345 347 349 351 354 358 359 357 356 356 357 355 356 355 354 353 352 351 351 350 350 349
288 290 291 292 292 292 294 296 297 296 296 297 298 299 296 296 297 297 297 297 297 298 299 298 298 299 300 300 301 303 305 305 306 309 309 309 310 311 313 314 316 319 320 319 319 321 321 322 322 323 322 321 319 320 322 323 323 325 327 328 330 333 336 339 340 342 344 346 350 354 356 359 359 359 358 357 356 356 355 354 353 352 352 351 350 350 350
285 281 288 291 292 293 294 294 296 297 298 297 298 296 295 296 297 297 298 298 298 298 299 299 299 299 301 301 302 303 304 304 305 306 307 309 310 310 311 314 318 318 318 317 317 319 320 321 321 320 320 320 321 321 321 322 323 324 326 327 330 332 335 337 339 341 342 346 349 352 355 357 359 360 359 358 357 355 355 354 353 352 352 351 351 350 350
284 285 287 290 291 292 293 294 293 293 294 295 298 297 297 298 298 299 299 299 299 300 299 300 300 300 301 301 301 302 302 304 305 306 307 308 309 311 312 313 316 317 317 316 316 318 319 320 320 320 320 320 321 321 321 321 322 323 324 327 328 331 334 337 337 339 341 345 347 347 350 354 356 358 358 358 357 355 354 354 353 352 352 351 350 350 350
288 290 292 292 292 293 293 294 294 295 294 295 295 296 297 297 297 298 299 300 300 300 300 301 301 300 301 301 302 301 302 303 304 305 306 308 309 310 311 313 316 315 317 317 317 318 320 320 318 319 319 320 320 320 319 320 321 321 323 326 328 330 334 335 334 336 338 340 342 344 347 352 356 358 358 357 357 357 359 358 357 355 354 353 353 354 353
283 285 288 290 286 285 287 291 294 295 295 296 296 296 296 297 297 298 298 299 301 301 302 301 301 300 301 301 302 302 302 303 304 305 306 307 308 310 312 313 314 315 318 318 317 319 320 318 317 318 318 319 320 319 319 319 319 319 322 324 327 330 331 332 332 333 334 335 338 341 344 346 352 356 349 334 346 358 357 342 335 331 331 353 356 355 354
284 290 292 291 291 290 291 292 294 295 296 296 296 296 296 297 298 298 298 298 299 300 301 303 302 301 301 302 302 302 302 303 304 305 306 306 307 309 311 312 312 314 316 318 319 320 319 317 317 317 317 317 318 318 318 318 318 319 319 322 325 325 327 328 329 331 332 334 336 339 343 345 348 352 356 353 318 319 332 340 329 320 315 318 322 331 350
293 293 291 292 292 292 292 293 295 295 296 296 296 297 297 298 298 299 299 300 300 300 301 302 302 302 302 303 303 302 303 304 305 305 307 307 308 310 312 312 313 314 316 318 318 318 317 316 316 316 316 316 317 317 316 317 318 318 318 320 322 322 323 326 329 331 332 331 332 332 335 340 343 348 354 354 356 328 316 317 319 314 310 310 311 312 316
293 295 293 293 294 294 293 294 295 296 298 299 296 297 297 297 298 300 300 301 302 301 300 299 300 302 302 303 304 304 304 305 306 307 310 312 312 312 313 313 314 315 316 318 319 318 315 314 315 316 315 316 317 316 316 317 317 317 318 319 320 321 322 325 329 330 329 327 327 327 329 333 337 341 348 352 352 353 347 314 310 312 312 309 308 309 310
298 294 293 294 294 294 295 296 296 296 297 299 300 299 301 303 302 302 301 301 300 301 300 299 300 301 302 302 303 304 305 305 308 309 308 309 309 310 311 312 315 318 318 318 318 315 314 314 315 314 314 315 315 315 315 316 316 316 317 318 319 321 322 325 326 325 324 324 325 327 328 331 334 338 341 347 353 353 353 353 349 327 312 306 304 305 305
296 296 295 293 293 293 294 295 294 295 296 297 297 297 298 297 301 301 300 301 301 301 300 300 301 302 303 303 304 305 304 305 307 307 307 308 309 310 312 314 316 317 319 318 315 314 315 315 313 312 312 314 315 315 314 315 316 316 316 317 318 322 325 325 323 321 321 323 324 326 328 330 333 335 338 341 344 349 352 352 351 352 353 350 319 305 323
296 296 296 294 292 293 293 296 297 296 296 297 296 296 297 297 297 297 298 298 298 299 300 302 302 302 302 303 303 303 304 304 304 305 306 308 309 311 312 313 315 318 318 316 313 312 313 312 311 311 312 314 315 314 314 314 315 315 316 316 316 317 318 319 318 318 319 320 322 323 326 328 330 332 336 338 340 342 344 349 350 351 351 353 354 325 308
297 296 297 298 298 296 295 295 295 296 295 296 299 296 296 296 296 296 296 297 298 299 299 301 303 304 304 304 304 304 304 304 304 305 306 308 310 311 313 315 317 317 315 313 310 310 310 310 310 310 311 314 314 313 313 314 314 315 315 315 315 315 316 317 318 317 318 319 320 322 324 325 328 332 336 337 339 340 341 343 346 349 351 352 348 344 328
298 297 297 297 297 296 296 295 295 295 295 296 296 296 296 295 295 296 296 297 298 298 300 302 303 304 305 305 305 305 305 304 305 307 308 310 311 312 313 315 315 312 311 309 308 309 309 309 309 309 311 313 313 313 313 313 314 315 315 314 314 314 315 316 317 317 316 317 319 321 322 324 326 329 332 334 335 337 338 339 341 343 346 349 343 349 350
298 297 296 296 296 296 296 295 295 295 295 295 295 295 296 296 295 296 296 297 299 300 301 302 303 304 304 304 305 306 307 307 307 307 309 311 311 312 313 313 312 310 309 307 307 308 308 308 309 310 312 313 312 312 312 313 313 314 314 314 313 314 314 315 316 315 315 317 319 319 319 320 322 324 326 329 331 334 336 338 339 341 343 346 348 347 349
296 295 295 294 295 295 295 295 294 295 295 295 295 295 295 295 295 296 297 298 299 301 302 302 303 303 303 304 304 306 308 308 309 310 311 311 310 311 312 312 311 309 306 307 307 307 307 307 307 309 312 312 312 311 312 313 313 313 312 313 312 313 314 315 315 314 315 317 317 316 316 316 317 320 322 325 327 330 332 335 337 339 341 342 344 347 348
295 293 293 294 296 296 296 295 295 295 295 295 295 296 296 296 297 298 299 300 301 302 302 302 303 303 303 303 304 306 307 309 310 310 308 306 307 308 309 309 308 307 306 306 306 306 306 306 307 310 311 311 310 311 312 312 313 313 312 312 311 312 316 314 313 313 315 315 314 314 314 314 315 316 317 319 320 323 326 330 334 337 339 340 342 345 343
296 296 296 296 297 295 295 295 295 295 295 295 295 295 296 297 298 298 299 301 301 301 301 302 303 303 303 303 303 303 304 306 305 304 304 304 305 306 307 308 307 306 306 306 305 305 306 307 308 310 310 309 310 310 311 311 312 313 312 311 311 311 312 312 313 313 313 312 312 312 312 313 313 314 315 316 318 320 323 327 329 333 336 338 340 342 329
300 299 298 298 298 298 298 297 295 296 296 294 294 295 296 297 297 298 301 301 300 301 302 303 303 302 302 302 302 302 302 301 301 302 303 304 304 305 306 306 306 306 304 304 304 305 307 308 310 309 309 308 309 309 310 310 312 311 311 311 312 312 312 312 311 310 311 310 310 310 310 311 311 312 313 313 313 315 317 321 325 328 332 335 338 336 329
299 298 298 297 297 298 298 296 296 296 296 294 295 296 297 297 299 298 299 300 302 303 303 303 303 302 301 300 300 300 301 302 302 302 302 303 304 305 305 304 304 303 303 303 305 306 307 309 310 309 308 307 308 308 308 311 313 310 311 311 311 311 311 310 310 309 310 309 309 309 309 310 310 310 311 310 311 311 312 314 317 321 325 329 332 328 323
300 299 298 297 297 298 297 296 296 296 295 295 295 297 299 298 298 299 300 300 301 302 302 302 302 301 300 301 301 301 301 301 302 303 304 304 304 304 303 303 303 302 302 301 303 306 306 309 309 308 306 306 307 307 308 312 312 310 309 309 309 309 309 308 308 308 307 308 308 307 308 308 307 307 308 308 308 309 310 310 312 313 314 316 319 322 322
299 299 298 297 297 297 297 296 297 298 298 299 299 301 301 299 298 298 298 299 300 302 302 302 301 302 302 302 301 300 300 300 301 301 302 303 304 302 301 301 301 302 301 301 304 305 306 309 309 306 305 305 306 306 308 311 312 308 307 307 308 308 308 307 307 307 307 306 307 306 306 306 305 305 306 306 306 307 307 307 307 306 307 308 309 309 309
298 299 298 298 298 298 297 297 298 297 298 298 297 296 300 302 300 298 298 298 299 302 301 301 301 300 299 299 299 300 300 300 300 300 300 301 303 302 300 300 301 302 303 306 305 305 307 308 307 306 305 305 305 306 307 309 310 307 307 307 307 307 307 306 305 306 306 306 305 305 304 305 304 304 304 304 305 305 305 305 305 304 302 302 302 302 302
299 298 298 298 298 297 297 297 297 297 298 297 297 297 298 298 296 297 297 298 299 302 300 300 299 298 297 297 297 297 299 300 300 299 299 300 300 300 301 300 301 303 305 306 306 305 306 307 307 305 305 305 305 306 306 307 307 306 305 306 306 306 306 306 305 304 304 304 304 304 303 304 304 303 303 303 302 302 302 302 302 302 301 301 300 300 300
300 299 299 299 299 298 297 296 297 297 299 298 298 298 298 297 298 297 298 299 300 301 300 300 299 298 298 298 298 298 299 300 300 299 298 298 297 298 297 297 300 303 305 306 305 306 305 305 305 304 304 304 305 306 305 306 304 303 305 305 305 305 305 305 304 303 303 303 303 302 302 302 302 302 302 301 301 300 300 300 299 299 298 299 299 299 299
301 300 299 298 298 297 297 297 297 297 297 297 300 299 298 299 300 298 300 301 301 301 300 300 301 299 299 299 299 299 298 299 299 300 299 297 296 296 295 297 301 303 306 306 305 304 304 304 305 305 305 304 304 306 305 304 302 303 303 304 304 304 304 304 303 303 303 303 302 302 302 302 301 301 301 300 300 300 299 299 298 298 297 298 298 297 298
302 300 299 298 298 298 298 298 298 298 298 298 299 298 298 299 299 300 301 302 302 301 300 299 300 301 300 299 298 297 297 298 298 298 300 300 299 299 298 298 300 303 305 305 304 302 303 303 304 304 306 305 304 305 304 302 302 302 302 303 304 303 303 303 302 303 302 301 301 301 302 301 301 300 300 299 299 299 298 297 297 296 297 296 296 296 297
302 301 300 299 298 299 298 298 298 298 297 298 298 298 298 299 300 301 301 301 301 301 300 299 299 299 300 300 299 298 298 298 298 298 298 298 298 299 301 300 300 302 304 304 303 303 303 303 304 304 305 305 304 303 302 301 301 301 302 302 303 303 302 302 301 301 301 301 301 300 300 301 300 300 299 299 298 298 298 297 297 296 296 296 296 296 296
302 300 300 299 300 300 298 299 298 298 298 299 299 298 298 298 299 300 301 301 301 301 301 300 299 299 299 299 299 299 299 299 299 299 296 295 295 295 300 301 301 301 302 303 303 302 302 303 303 304 303 303 303 303 301 301 301 301 301 301 301 301 301 301 301 301 300 300 301 300 300 300 300 300 299 299 299 298 297 297 297 297 297 296 296 296 295
302 301 301 303 299 298 298 298 299 299 298 299 299 301 300 299 300 300 300 300 300 300 300 300 299 299 298 299 300 300 300 300 299 299 301 299 297 298 301 300 301 300 300 301 302 302 302 303 302 302 302 302 302 301 300 301 301 300 300 300 300 300 300 300 300 300 301 301 300 300 300 300 299 299 299 299 299 298 298 299 298 297 297 296 296 296 296
302 301 301 301 300 299 299 299 300 299 298 298 297 297 300 300 300 298 298 299 300 300 299 298 299 299 299 299 299 299 299 299 299 299 300 301 302 301 300 300 299 299 300 299 299 300 301 302 302 301 301 302 301 299 299 300 300 300 300 300 299 299 299 299 299 299 299 300 301 301 301 300 299 299 300 299 299 299 299 298 298 298 298 298 298 297 296
302 301 301 300 299 299 300 300 298 296 297 297 297 300 300 299 299 298 298 298 298 298 298 298 299 299 300 300 301 301 301 300 297 296 299 300 300 301 300 299 298 299 299 298 299 299 300 301 301 301 301 301 300 299 299 299 300 299 299 299 299 299 299 299 299 299 299 299 299 298 298 298 298 298 298 298 298 298 298 298 298 298 298 297 296 296 295
302 302 302 301 301 300 299 298 299 300 296 298 300 299 300 299 299 300 299 297 297 298 297 297 297 297 298 303 302 299 302 305 301 297 301 301 299 300 299 297 298 298 298 297 296 297 299 299 300 300 301 300 299 299 299 299 299 300 299 299 299 299 299 299 299 299 298 298 298 298 298 298 297 297 297 297 298 298 298 298 298 297 297 297 297 296 296
302 302 300 300 299 299 299 299 297 296 298 301 298 300 300 299 298 298 301 300 300 302 295 297 297 297 297 297 298 299 300 303 304 302 301 300 299 299 299 297 296 297 297 296 296 297 298 299 300 300 300 299 299 299 299 299 299 299 298 299 299 299 299 299 299 298 298 298 298 298 298 298 297 298 298 298 298 298 297 297 297 297 297 297 296 296 297
302 301 301 302 302 301 299 298 298 299 299 299 298 301 302 300 299 301 301 300 298 300 298 297 298 298 297 298 298 298 300 302 303 301 300 300 299 298 298 298 298 296 296 296 297 296 296 296 297 299 298 299 298 299 299 298 298 299 299 298 298 299 298 298 298 297 297 297 297 296 296 296 297 296 297 297 297 296 296 297 296 296 295 295 295 295 295
301 301 301 301 301 300 299 299 299 299 300 301 301 302 301 302 302 301 300 301 299 298 298 297 297 298 299 298 300 299 301 303 303 303 302 300 300 298 298 298 298 297 297 296 296 296 297 298 297 298 297 298 297 297 299 299 298 298 298 298 298 298 298 298 298 297 296 296 296 296 296 295 295 294 295 295 296 296 296 295 295 295 295 295 294 294 293
Wind_Speed
2 0 1 3 2 1 2 2 2 4 4 4 3 2 3 1 2 6 2 2 5 4 8 8 7 7 8 9 11 10 9 10 14 14 14 15 16 16 18 17 16 17 16 16 17 16 15 14 15 13 4 7 9 9 10 11 13 14 13 13 14 14 14 14 14 13 12 11 11 11 11 10 11 11 11 11 10 10 9 10 9 10 10 10 10 10 10
2 2 2 1 3 2 4 4 5 4 3 4 3 4 5 3 4 5 6 5 4 2 9 7 6 5 6 7 6 9 13 14 14 13 14 14 14 15 15 13 14 14 15 15 15 16 15 16 16 13 12 11 4 10 11 12 12 12 12 13 13 13 14 14 13 12 12 11 11 11 11 12 11 11 11 10 10 11 11 11 10 10 9 10 9 10 10
0 1 3 1 0 1 3 5 6 6 4 3 3 1 2 3 2 2 3 1 1 1 6 6 3 3 3 7 13 11 10 13 13 13 13 13 13 13 13 13 15 13 14 14 16 17 16 16 15 12 11 10 10 6 7 11 12 12 12 12 13 13 14 12 12 11 11 11 11 12 12 11 10 11 12 10 10 11 11 11 11 10 10 10 10 10 11
2 1 2 4 2 2 3 3 3 3 1 0 2 2 1 1 3 5 3 4 4 6 8 7 3 6 9 9 9 9 9 11 12 12 12 12 13 12 13 13 13 14 15 15 15 15 15 16 13 13 13 11 10 9 9 6 11 12 13 13 14 14 14 12 12 12 12 11 11 12 11 12 12 11 11 11 11 11 11 11 11 10 11 11 11 11 10
2 3 2 4 4 3 3 1 3 1 2 1 2 3 2 0 1 3 1 0 3 5 6 7 8 7 7 7 8 9 10 10 10 11 11 12 12 11 12 13 14 13 13 13 13 14 13 13 14 13 11 11 11 11 10 8 7 10 13 14 13 13 13 13 13 12 11 11 12 11 12 12 11 10 10 11 11 11 13 12 10 10 12 12 11 11 11
3 3 6 2 3 3 3 1 1 1 2 3 3 4 2 2 3 2 2 0 3 4 5 7 8 7 5 5 4 3 6 9 11 11 11 10 10 11 11 10 12 12 11 11 10 11 10 12 13 13 11 9 9 10 8 7 6 6 11 11 12 13 13 13 13 13 13 13 13 13 12 11 11 11 11 12 12 11 11 10 11 12 12 12 12 11 12
2 4 5 4 2 5 1 4 3 2 4 0 4 7 2 3 4 3 2 1 3 3 2 3 5 6 3 1 3 6 7 7 7 10 12 12 12 12 12 13 11 11 12 13 13 14 13 14 13 13 12 11 10 11 11 9 6 6 6 11 11 12 13 13 12 12 13 14 14 14 13 13 12 12 12 11 11 11 9 11 12 12 12 12 12 12 12
2 3 1 1 3 3 3 5 3 2 2 2 1 1 1 2 4 3 1 4 5 5 6 5 6 7 6 5 1 6 7 7 7 10 10 12 12 12 11 12 11 11 12 12 13 13 12 12 11 12 11 12 10 10 11 9 8 4 4 4 8 11 12 12 13 14 14 14 13 13 13 13 13 13 11 11 10 10 10 10 10 10 10 11 12 13 13
2 1 2 5 3 6 3 1 2 1 1 1 2 1 6 1 2 3 2 4 5 6 6 7 9 10 2 5 4 7 8 8 7 7 8 11 11 10 10 10 11 9 9 11 11 11 12 12 12 12 12 11 9 8 10 10 9 6 3 4 4 2 4 8 12 13 13 14 13 13 12 13 14 15 15 15 12 7 7 9 9 10 12 11 11 11 12
3 2 1 3 4 1 5 2 1 1 2 1 3 1 6 1 3 3 3 4 6 7 7 8 9 10 2 1 3 8 10 10 10 8 8 8 9 10 10 9 10 10 9 9 10 11 13 13 12 12 13 12 11 8 8 9 12 8 8 7 3 1 2 1 2 6 10 12 13 13 13 14 14 13 14 14 15 14 13 10 11 11 11 11 11 11 13
3 2 2 3 3 5 4 6 5 3 2 4 2 1 7 1 3 4 4 4 5 6 9 9 8 5 3 2 6 8 11 12 10 10 9 9 9 10 10 10 10 11 11 10 11 10 11 13 14 14 15 15 12 10 10 8 7 8 10 9 8 8 5 3 5 5 5 8 11 12 13 13 12 11 11 11 11 12 15 15 15 13 12 11 10 10 12
3 4 3 4 4 3 3 7 2 4 2 2 2 6 5 3 6 4 3 5 5 7 6 7 5 4 4 6 7 10 12 11 10 9 10 10 11 10 11 10 9 9 9 11 10 10 9 10 11 13 13 13 12 9 8 8 8 8 7 9 10 7 7 5 3 4 5 8 9 10 12 12 11 11 10 8 9 11 11 12 12 13 14 11 12 11 11
4 6 3 2 5 3 3 4 4 4 2 1 1 8 1 5 4 2 2 3 4 4 6 5 5 3 4 6 9 11 11 11 12 11 9 9 9 10 10 10 11 9 8 7 8 10 8 8 8 9 10 11 11 10 9 8 7 6 8 8 8 7 6 6 5 4 6 6 8 8 9 11 11 11 11 12 12 12 11 11 12 13 14 13 12 13 12
5 4 4 6 5 6 5 3 3 1 3 2 8 3 2 4 5 2 1 3 3 3 4 5 5 7 7 8 8 10 9 9 10 11 11 10 10 9 7 9 8 8 9 10 9 9 9 9 9 9 9 10 10 10 9 8 9 9 9 8 8 8 8 7 7 5 5 6 9 9 10 10 11 13 12 13 12 13 11 11 14 15 14 13 13 12 12
3 2 1 2 2 2 3 5 2 1 3 5 2 3 1 2 2 2 3 2 4 2 5 5 7 10 11 8 8 8 9 9 9 10 11 12 12 11 11 10 9 9 8 10 10 9 8 9 8 9 10 10 11 11 10 10 11 11 10 9 9 9 9 8 7 7 6 7 7 8 10 13 14 14 13 13 13 12 12 12 13 14 14 13 12 12 12
5 4 5 6 9 5 6 5 4 3 6 1 0 2 5 1 2 2 3 3 3 5 5 7 8 9 12 13 7 7 8 9 8 8 9 11 10 11 10 9 8 8 8 7 9 10 8 8 7 8 9 9 10 12 11 11 11 11 11 10 9 9 9 9 8 8 7 8 8 8 10 12 14 15 13 13 12 12 12 12 12 12 12 11 12 11 12
4 7 7 6 3 6 5 5 3 4 5 2 2 2 4 3 3 1 3 4 5 5 7 8 9 9 9 12 11 10 9 9 9 9 10 11 11 11 11 11 10 8 8 8 9 10 8 7 7 7 7 9 13 13 13 13 12 11 10 10 10 9 8 8 8 8 8 7 8 9 9 10 12 14 15 13 12 12 11 12 12 12 12 11 12 12 12
3 5 8 3 1 2 4 4 3 4 3 2 2 4 3 2 3 3 5 5 6 8 6 9 9 9 10 11 13 11 9 9 11 9 9 9 10 10 11 11 10 8 8 8 8 9 9 7 6 5 7 6 10 12 12 12 12 12 10 10 9 9 9 8 8 9 10 11 10 9 10 9 11 12 13 12 12 11 11 12 12 12 12 11 12 12 12
1 4 2 5 9 5 5 5 2 2 3 4 3 3 3 4 4 5 5 6 7 7 9 9 11 12 11 11 12 10 9 9 11 11 9 9 10 10 12 12 11 9 8 7 7 9 10 8 7 5 6 7 7 10 12 12 12 12 11 10 9 9 9 9 9 8 9 9 10 10 9 9 10 10 11 11 12 11 11 11 11 12 13 11 11 11 12
5 7 2 3 2 3 3 4 4 4 4 5 4 4 3 4 4 5 6 6 7 7 9 9 10 12 11 11 12 11 10 9 10 11 10 10 10 10 10 10 11 10 8 8 8 8 8 8 7 7 5 5 7 9 11 11 12 12 11 9 8 9 10 8 6 7 9 12 12 10 10 9 9 10 11 11 11 12 12 13 12 13 12 12 13 13 11
5 6 10 9 5 7 10 7 7 6 5 4 4 4 4 4 5 6 6 5 7 8 10 10 11 12 13 11 12 13 12 10 9 10 11 10 10 11 11 11 10 11 9 8 8 8 8 6 7 8 7 5 5 9 11 12 12 12 11 10 9 9 8 7 6 5 7 9 10 10 10 10 9 10 10 11 12 12 12 12 12 12 12 13 14 13 12
5 8 8 4 1 4 3 3 6 6 6 5 4 3 3 4 5 6 7 8 7 9 10 11 11 13 12 12 11 13 13 11 11 11 12 12 11 11 10 10 10 11 11 9 9 8 7 4 6 7 7 6 5 7 9 10 12 12 13 11 10 8 8 7 6 7 9 10 11 10 10 10 10 9 11 14 11 11 11 14 19 19 16 14 13 11 10
7 9 9 6 5 4 6 5 5 5 5 4 3 4 5 5 5 5 7 9 10 9 9 9 11 12 12 14 12 13 13 12 11 12 13 13 12 11 11 11 11 11 11 10 8 8 6 4 5 6 7 6 6 7 8 9 11 12 12 11 8 7 9 9 9 8 8 10 11 10 10 9 9 9 8 9 13 16 16 13 15 19 18 19 14 11 12
9 6 4 7 6 7 4 5 6 6 5 5 4 4 5 6 6 6 7 8 10 11 11 12 11 13 13 13 13 15 15 13 12 13 13 13 13 12 12 12 11 11 11 10 9 8 5 4 5 5 5 5 5 7 8 9 9 10 11 10 9 8 8 7 8 8 7 8 9 10 10 9 10 10 8 8 9 13 15 12 7 7 12 15 16 15 15
10 6 5 7 8 7 2 4 5 5 4 5 4 5 6 5 6 6 8 9 8 9 11 13 14 12 14 14 13 14 14 14 12 13 14 14 14 12 10 11 11 10 10 9 7 6 5 5 5 6 6 5 5 7 8 9 10 10 10 10 10 9 9 9 8 7 7 7 7 6 8 10 10 8 9 8 9 10 8 4 8 10 11 13 17 18 18
11 1 2 3 1 3 2 1 1 5 6 5 4 2 3 5 6 7 8 9 10 9 11 12 14 14 12 13 13 13 14 14 13 14 12 13 12 11 10 11 11 9 8 7 6 4 5 5 5 5 6 6 6 7 8 8 8 10 11 11 11 10 9 9 8 6 7 8 6 5 6 8 9 9 9 9 8 8 8 7 7 8 9 12 13 12 15
6 4 5 2 1 3 4 7 5 4 5 5 5 4 4 5 7 6 8 9 10 11 12 13 13 14 13 12 14 15 15 15 14 13 13 14 15 14 11 9 10 9 8 6 4 3 5 6 6 6 7 6 6 7 8 8 9 9 10 10 9 12 17 12 7 8 8 7 7 7 5 6 7 9 11 10 9 7 7 8 9 10 10 10 12 15 15
4 6 8 9 10 9 7 8 6 5 5 5 4 3 4 3 4 7 8 10 10 10 11 12 12 13 14 13 12 13 13 13 14 14 13 14 14 11 10 10 9 8 6 5 2 1 3 3 5 7 8 6 6 8 9 8 8 10 10 10 10 9 9 10 9 8 8 9 8 8 8 7 6 7 9 10 9 9 8 7 7 8 9 8 5 6 14
8 9 9 11 7 2 3 3 4 3 3 3 2 2 2 4 6 7 8 9 11 11 11 12 12 13 13 15 14 15 16 16 16 16 14 13 13 11 10 8 8 8 6 4 3 1 2 3 4 6 7 6 7 9 9 9 9 9 10 10 10 9 8 8 9 8 8 8 8 9 9 9 7 6 6 8 9 8 8 8 8 7 8 7 4 4 3
8 6 7 7 3 5 6 4 5 4 3 3 2 4 3 3 6 7 8 10 10 11 12 13 12 12 13 13 14 15 17 18 15 13 12 12 12 10 8 6 6 5 4 4 2 1 2 3 4 6 6 5 7 8 10 9 9 9 10 11 9 9 8 9 9 9 8 8 8 10 9 7 6 6 5 5 7 8 8 8 8 8 8 8 6 8 10
5 5 7 4 4 4 5 5 3 3 3 3 2 3 5 4 5 7 9 10 10 11 13 13 13 13 12 12 12 13 14 13 12 12 12 12 11 7 6 7 7 6 5 3 1 0 1 3 4 5 5 6 6 7 9 8 8 8 9 8 9 11 13 16 13 9 8 7 7 7 7 8 7 6 6 5 5 6 6 7 7 8 8 8 7 8 9
4 4 5 4 4 5 5 3 3 3 4 3 2 4 5 4 5 8 9 10 11 12 13 13 11 11 12 12 13 12 10 9 9 10 10 8 6 5 5 4 4 6 5 3 2 2 2 3 4 5 5 5 6 8 8 8 7 7 8 8 8 8 8 12 9 9 8 7 6 6 7 7 7 7 7 6 5 5 6 6 7 6 7 7 8 7 7
6 4 2 4 4 4 5 4 5 5 4 5 6 5 3 3 4 6 8 9 10 11 11 11 9 9 11 12 13 11 7 6 4 4 2 5 3 4 5 6 6 5 4 3 2 2 2 4 5 5 5 6 7 8 9 8 7 7 7 7 7 8 9 7 9 9 7 6 5 6 6 7 7 7 7 7 7 7 6 7 6 6 6 7 7 7 5
11 10 10 10 11 9 9 8 6 5 4 4 4 3 3 4 3 5 7 8 10 11 10 9 8 9 9 10 11 12 13 8 7 8 8 6 6 6 6 6 4 3 3 3 3 3 3 3 4 4 4 6 6 6 7 8 8 6 6 6 6 7 7 7 8 7 6 5 5 6 6 7 7 7 8 8 8 7 7 7 7 7 6 6 6 6 6
9 5 4 6 7 6 6 6 6 7 5 4 3 2 3 3 3 5 8 8 9 9 10 9 7 7 9 9 10 10 11 11 9 9 8 7 7 7 5 5 3 2 3 4 4 4 4 5 5 5 6 6 6 6 7 9 8 6 5 6 6 7 7 8 7 7 6 5 5 5 5 6 7 7 8 8 8 8 8 7 6 7 6 6 6 5 5
6 6 5 5 5 4 5 5 6 7 6 5 3 3 3 4 3 3 7 8 8 9 8 8 6 7 8 9 8 9 9 9 8 8 8 8 7 6 6 6 5 2 3 4 5 5 5 5 9 11 6 6 6 6 8 9 6 3 5 5 5 6 7 7 7 7 6 5 5 5 5 7 8 7 7 7 7 7 7 7 7 6 5 5 5 5 5
6 8 7 6 5 7 7 6 6 6 5 5 4 2 2 2 3 4 4 5 7 8 8 7 6 6 7 8 8 8 9 8 8 7 6 6 6 6 7 6 5 5 5 5 5 6 6 5 9 11 7 5 6 7 8 14 7 4 5 4 4 5 5 6 6 6 6 6 5 6 6 6 6 6 7 7 7 7 6 6 7 7 7 7 7 5 4
5 7 8 8 7 7 7 7 5 5 4 2 1 2 1 1 2 3 4 4 6 7 7 8 8 7 6 6 6 8 9 9 9 9 8 6 5 6 6 6 6 6 6 6 6 5 5 7 10 6 5 5 6 6 9 13 12 6 5 5 4 4 5 5 5 5 4 4 6 6 7 6 6 6 7 7 7 7 7 7 8 8 8 9 9 10 9
1 1 3 5 6 6 5 4 3 4 5 4 2 1 0 2 2 3 4 5 6 6 7 7 7 8 8 8 7 8 9 9 9 9 9 9 6 5 6 6 7 8 8 6 5 5 6 8 7 4 4 5 6 7 8 10 10 5 5 5 4 4 4 5 5 5 5 5 5 6 6 6 6 6 6 6 6 7 8 9 8 9 10 10 10 10 10
2 3 5 6 6 6 6 6 5 5 4 4 4 2 1 2 3 3 3 4 4 5 5 6 7 7 8 8 8 7 8 8 8 8 9 8 7 6 5 6 8 8 9 9 6 6 9 12 8 4 4 5 6 5 5 7 8 5 5 4 4 4 4 5 5 5 5 5 6 8 8 8 7 7 7 6 6 7 6 8 9 9 8 8 8 8 9
4 3 3 5 6 6 6 7 5 5 5 4 4 3 4 4 3 3 3 2 4 4 5 5 6 6 6 6 6 6 6 6 6 6 7 7 7 7 7 7 9 9 8 6 6 7 9 9 7 5 4 4 5 6 5 6 5 4 5 4 3 3 4 4 4 5 5 6 6 6 7 7 7 7 7 7 7 6 6 8 8 9 9 9 9 9 9
6 5 6 6 6 6 5 5 6 5 3 4 4 4 5 5 4 2 0 1 2 3 4 5 8 7 6 5 5 5 5 6 6 5 5 7 7 7 7 8 10 9 12 9 9 8 7 7 7 7 5 4 5 8 7 5 4 4 4 4 4 4 4 5 5 5 5 6 6 6 7 7 7 6 7 7 6 7 7 7 8 9 9 9 9 9 9
5 6 7 8 7 7 7 7 7 6 5 4 5 6 5 5 4 2 1 1 2 2 4 3 4 6 6 5 5 6 6 6 7 7 5 4 6 7 8 8 9 10 16 8 9 6 8 7 7 5 9 8 6 9 8 5 4 4 4 4 4 5 5 5 5 5 5 5 5 6 6 6 6 6 6 6 7 6 7 9 8 9 9 10 10 10 9
5 5 5 6 7 7 7 6 5 5 5 4 5 5 5 4 3 2 1 1 2 3 3 4 3 3 4 5 5 5 5 5 5 5 5 4 5 8 8 8 9 12 20 10 8 7 8 7 7 10 13 12 11 10 6 4 4 5 4 4 5 5 5 6 6 5 5 6 5 6 6 7 6 5 7 6 6 7 7 8 8 9 10 11 10 10 10
6 5 6 7 8 8 7 7 7 7 5 5 5 5 5 5 3 2 2 2 3 2 3 4 4 4 4 3 3 4 5 5 5 5 7 8 8 8 8 9 10 9 12 15 9 9 7 7 12 16 12 13 12 11 6 5 5 5 5 4 5 5 5 6 6 6 7 6 6 6 7 7 7 7 7 8 8 7 7 9 10 9 10 11 11 10 10
6 4 3 5 8 8 7 7 5 5 6 6 5 4 4 5 4 3 3 3 3 2 2 2 3 3 3 3 4 4 5 5 6 6 4 5 6 5 6 9 7 9 15 16 9 9 8 16 18 16 15 15 14 8 6 6 5 5 5 5 5 6 6 6 6 6 7 7 7 6 5 5 7 7 7 7 7 7 8 10 10 9 10 11 12 11 11
6 6 6 4 5 7 7 6 6 6 6 6 6 5 4 4 4 4 3 3 3 2 2 3 3 3 3 2 3 4 4 5 5 6 5 4 4 5 7 11 10 13 12 9 9 9 9 11 13 17 17 16 14 7 7 6 6 5 6 6 6 6 7 7 7 7 7 7 8 7 9 9 7 8 10 10 9 9 9 9 9 9 9 11 12 12 11
7 7 7 5 6 7 7 7 7 6 6 6 6 5 4 4 5 4 4 4 3 3 3 3 4 4 5 5 3 1 0 1 4 5 5 5 4 3 3 4 8 13 13 12 14 13 21 21 20 18 18 17 9 7 8 7 6 6 6 7 7 6 6 7 7 6 7 8 8 7 6 6 6 7 8 9 9 9 9 9 9 8 7 10 12 11 11
6 6 6 5 6 8 8 7 6 4 4 4 5 5 5 5 4 3 3 3 3 3 3 4 5 5 4 4 4 4 3 1 1 4 4 4 4 4 4 7 12 12 10 8 9 8 16 21 21 20 19 14 8 8 7 7 7 7 7 7 7 7 8 7 6 6 6 8 8 8 8 8 8 7 8 9 9 10 11 9 9 9 9 10 11 11 11
8 8 7 3 5 6 7 6 5 5 4 4 5 5 5 5 5 3 2 1 1 2 4 4 4 4 4 4 5 4 4 3 2 3 4 4 4 3 5 6 7 11 11 8 9 9 13 18 17 17 12 8 8 8 8 7 7 7 7 8 8 7 8 9 9 10 8 8 8 9 9 8 8 9 9 9 9 10 10 10 10 14 19 14 11 11 9
7 7 5 1 5 5 3 5 6 5 5 5 5 5 5 4 4 3 3 2 2 2 3 4 4 5 4 4 4 4 4 3 2 5 3 4 4 8 9 7 7 8 8 8 6 7 7 8 9 9 9 9 8 8 8 8 7 7 8 7 8 8 8 8 8 8 8 8 8 8 8 8 9 9 9 9 10 10 9 10 9 9 8 8 8 8 8
7 7 7 4 4 4 3 4 4 4 4 5 5 5 5 4 4 5 4 1 2 2 2 4 4 4 4 4 4 4 4 4 3 2 4 5 4 4 7 9 6 7 6 5 5 5 6 7 10 13 13 9 8 8 9 12 9 8 8 8 8 8 9 8 7 7 8 8 7 7 9 8 8 8 8 8 8 9 9 9 9 9 8 7 7 8 9
Wind_Direction
345 300 281 346 36 334 300 308 316 327 314 350 22 291 246 140 171 214 264 320 331 339 3 3 15 358 3 3 358 355 349 3 7 7 13 18 17 10 13 11 9 7 5 7 3 6 4 7 12 359 325 195 183 192 191 193 192 193 188 188 193 194 196 200 204 204 202 202 203 203 204 203 206 208 207 208 207 206 205 208 208 209 206 200 196 201 206
8 1 24 27 48 352 342 320 297 276 277 280 271 261 270 203 232 242 270 302 279 46 356 1 26 358 7 358 336 0 13 10 5 5 12 13 13 13 9 3 7 5 5 3 4 5 6 8 6 4 7 354 274 194 192 191 192 193 184 192 192 195 199 203 203 200 200 200 201 200 201 202 204 205 207 207 206 208 209 209 210 208 208 205 201 200 203
1 302 332 359 72 197 306 276 266 269 265 276 261 242 303 343 317 350 27 35 298 63 358 346 8 4 350 14 19 13 6 3 5 6 4 6 7 8 8 5 0 1 3 4 5 6 3 2 360 1 356 350 353 316 210 191 193 190 187 190 193 195 201 201 199 197 197 201 199 200 203 203 202 203 205 204 206 209 211 210 211 209 205 206 207 205 204
318 284 346 301 297 257 231 287 311 313 352 11 327 350 269 48 281 319 355 37 333 345 348 345 356 23 26 21 10 8 1 357 1 4 358 358 359 358 7 359 356 359 2 5 3 358 357 355 355 359 353 352 351 355 341 281 203 187 188 191 193 196 198 196 195 195 198 198 199 203 201 204 203 203 202 203 207 209 210 212 212 209 210 211 210 209 208
271 261 311 318 346 25 29 4 62 43 270 278 285 280 319 5 132 75 65 309 25 330 344 357 4 26 30 23 6 1 355 359 356 356 357 355 351 0 358 359 0 354 358 358 354 353 351 350 351 349 347 348 348 342 333 321 291 201 193 193 194 196 197 194 195 194 194 195 200 201 203 204 204 200 202 206 209 210 213 213 209 209 215 212 213 212 212
248 291 327 337 50 32 248 235 260 233 252 296 320 291 337 358 34 108 108 309 329 339 356 9 348 353 37 27 12 7 5 350 346 346 350 352 350 350 356 358 358 347 347 348 347 347 341 348 346 344 340 334 339 332 327 321 323 245 195 195 192 195 194 195 194 193 193 194 197 201 200 201 200 202 202 208 210 211 215 212 212 215 215 215 214 212 214
286 326 360 34 17 236 239 305 295 254 246 191 221 269 348 46 28 48 96 12 343 336 326 303 303 305 276 50 17 23 15 359 353 344 342 347 353 348 347 347 353 350 341 344 343 343 350 349 346 344 339 343 339 345 342 341 335 333 242 196 193 193 194 196 194 195 195 196 199 198 197 196 197 202 205 210 211 211 210 212 214 215 215 214 215 214 215
23 37 54 78 251 241 290 275 281 320 86 23 53 336 30 85 67 9 10 332 332 325 334 328 311 298 261 195 0 31 11 4 355 350 342 342 345 347 345 335 341 344 342 339 338 336 337 340 347 339 333 333 335 342 338 341 339 340 357 281 210 192 194 195 197 197 196 199 201 202 199 195 194 196 199 205 214 217 220 222 221 220 221 219 217 216 215
160 206 148 215 318 332 334 15 1 37 101 9 90 191 274 181 86 66 5 340 327 331 337 336 333 319 284 221 295 7 358 353 349 335 337 337 335 337 335 337 331 330 332 332 333 337 334 342 344 338 328 326 327 341 342 341 335 338 13 53 34 356 235 212 202 198 197 197 199 200 198 199 200 197 193 193 196 177 230 243 234 225 223 219 219 216 214
127 138 353 352 24 273 276 229 265 156 261 201 226 137 280 56 47 29 31 357 333 331 334 338 336 314 99 242 300 338 338 340 336 336 326 326 333 333 330 331 328 331 331 331 336 342 335 335 341 334 328 327 322 328 339 349 343 350 10 13 360 141 132 81 268 225 205 199 199 198 197 203 209 214 209 200 184 179 188 215 242 242 234 231 223 219 217
74 91 149 204 172 240 208 212 217 252 228 222 216 87 285 138 33 4 357 351 340 339 338 337 343 11 48 292 318 322 331 327 329 332 324 321 325 330 332 329 330 334 331 335 338 342 340 336 340 340 333 332 323 328 337 341 344 7 352 350 351 353 334 243 192 193 206 209 203 201 203 206 204 211 222 221 204 185 189 192 208 231 236 235 230 224 221
178 148 134 229 205 228 249 215 221 240 230 205 91 347 278 34 336 328 356 352 341 330 335 339 352 2 349 324 312 321 316 314 316 319 321 322 322 325 328 325 329 326 328 330 340 342 342 338 337 338 334 328 324 328 328 332 17 2 346 339 331 322 330 321 264 219 207 207 211 210 211 212 206 207 207 219 226 209 200 198 203 207 224 227 228 226 221
193 186 237 323 290 264 221 205 216 258 215 89 192 222 233 317 311 285 347 320 321 327 336 349 329 311 334 303 300 305 305 315 315 315 316 312 310 313 317 321 326 325 333 331 327 326 332 332 339 334 327 323 321 324 331 337 10 350 332 326 317 320 312 310 309 266 220 216 222 221 217 214 212 214 210 209 213 215 205 204 205 210 214 219 222 228 223
188 192 185 232 248 234 180 223 191 225 96 191 216 212 165 234 288 313 314 304 302 324 311 313 288 292 298 299 305 302 304 306 302 303 307 312 315 308 304 314 318 324 327 328 328 328 341 333 337 329 326 328 323 324 329 335 341 331 321 314 315 317 312 307 300 287 270 234 216 218 221 218 217 218 215 209 211 212 209 205 207 211 213 217 222 225 227
63 52 112 5 305 269 127 156 67 149 152 228 200 292 273 179 241 290 304 287 284 306 299 288 296 302 302 303 296 291 305 306 306 308 309 313 313 314 317 319 323 322 325 325 323 328 328 332 331 326 331 334 329 322 327 332 330 322 314 312 314 314 310 304 298 290 282 269 250 223 214 217 219 223 215 210 210 210 210 209 209 212 214 215 219 225 228
149 165 178 201 211 190 200 140 167 215 211 193 77 43 303 239 193 239 262 265 263 277 273 291 293 288 299 303 295 296 296 297 302 303 303 302 304 310 304 302 303 312 311 314 317 319 326 332 326 324 335 337 329 325 325 330 322 316 312 309 308 304 301 298 297 295 291 288 276 259 231 215 218 224 220 211 207 205 207 209 211 213 216 214 219 224 226
155 194 211 237 233 183 195 170 181 206 237 200 210 194 226 261 262 217 276 274 285 278 282 284 279 287 280 284 293 295 294 296 298 301 302 298 300 300 303 303 305 307 305 314 314 311 320 322 316 326 332 342 333 327 328 327 319 311 306 305 302 296 293 298 301 301 298 288 279 272 260 232 217 217 219 211 207 206 203 209 211 215 217 212 216 220 223
274 254 209 189 254 243 240 249 201 211 240 249 205 219 229 218 230 239 262 281 280 288 286 284 282 273 278 283 287 287 288 291 291 293 291 296 296 296 299 301 302 299 302 305 303 301 307 313 318 326 325 338 332 321 319 319 314 306 303 301 299 299 302 304 306 306 303 300 287 274 265 249 231 219 216 209 210 205 203 210 211 215 216 215 219 220 225
45 272 341 187 221 220 228 220 247 237 214 232 188 186 198 236 249 263 256 260 269 275 281 271 277 281 278 278 278 281 287 284 287 286 287 288 290 293 295 295 300 299 300 298 296 302 305 313 316 326 332 332 325 322 321 318 309 304 303 299 298 298 300 305 309 311 305 297 301 299 285 261 239 228 216 211 210 206 205 207 212 216 219 215 220 220 225
181 237 250 254 243 217 207 198 229 242 233 222 206 199 216 233 249 254 269 272 275 272 271 274 274 275 277 276 280 282 277 277 277 282 282 282 286 287 283 287 291 289 281 281 289 296 302 307 314 313 314 333 330 321 321 319 313 307 303 303 299 296 294 297 302 312 309 301 299 297 292 276 246 228 217 211 208 207 202 207 208 215 215 215 218 218 220
265 313 273 252 271 278 261 239 222 223 197 187 219 226 235 246 265 277 272 251 260 264 270 276 276 276 275 270 273 275 276 271 268 270 275 275 274 278 285 285 285 284 277 277 281 287 293 298 307 308 312 329 340 328 325 321 316 312 308 306 304 294 295 297 301 322 310 304 299 296 296 293 262 236 222 212 214 214 215 210 207 208 208 215 217 218 216
263 224 245 125 186 272 291 259 209 199 196 180 214 250 274 267 276 277 284 285 267 262 268 270 271 274 276 276 271 269 268 265 268 270 272 272 270 272 271 273 275 277 273 267 273 279 282 285 297 302 312 324 344 340 328 321 317 314 314 308 303 305 307 301 328 334 319 307 300 295 296 300 295 263 239 228 216 217 224 216 216 216 211 216 215 211 215
240 235 227 186 194 246 228 209 207 185 174 170 200 243 260 275 264 265 277 285 289 283 276 268 270 271 272 272 272 269 267 264 261 264 267 272 272 268 270 275 274 270 269 267 268 275 280 290 290 302 315 324 339 338 325 315 316 314 312 305 307 314 315 323 334 323 310 303 300 300 300 303 300 286 266 254 242 231 227 221 214 220 222 230 236 225 214
248 246 209 175 169 214 241 207 178 189 179 168 214 243 246 256 267 276 271 267 278 285 286 288 282 281 278 272 270 269 269 266 263 262 262 263 264 264 266 264 263 263 262 264 266 273 283 292 286 290 310 322 333 332 325 320 317 314 312 307 309 313 313 300 296 291 297 301 308 311 312 311 306 305 281 256 253 248 240 238 250 238 234 236 236 235 235
233 222 183 185 198 223 206 171 177 183 181 175 189 227 238 258 277 271 274 279 275 279 288 288 287 283 279 279 272 269 271 269 261 261 264 265 263 258 255 254 253 247 247 250 260 270 278 287 298 311 315 316 329 331 327 322 318 317 315 309 305 306 300 293 286 289 291 284 285 294 302 304 304 307 296 263 248 255 253 217 221 227 227 224 225 230 231
239 198 118 144 165 198 166 126 255 212 203 194 208 229 258 279 287 295 293 293 289 285 281 280 283 283 278 275 274 273 272 269 269 269 266 263 264 260 254 256 257 247 240 239 242 259 282 289 302 312 315 319 330 330 325 320 317 313 309 306 303 297 292 290 295 293 295 292 284 283 290 295 299 295 294 289 270 253 247 238 252 257 248 240 239 238 240
238 162 116 81 245 247 195 184 226 198 178 178 194 220 248 251 283 289 287 284 284 285 283 281 276 278 279 273 272 270 269 273 270 263 260 264 264 262 257 254 250 239 229 232 219 251 283 301 315 312 311 317 324 326 322 318 314 309 303 301 298 299 306 310 308 306 300 297 292 287 285 295 303 307 303 302 301 287 250 240 235 233 239 235 214 204 220
223 198 181 196 223 213 206 220 211 180 179 192 202 232 259 282 293 295 297 301 300 293 289 285 284 284 282 279 271 271 268 266 267 267 264 263 263 263 255 246 236 221 208 203 191 274 299 312 305 308 310 315 326 324 320 316 313 310 308 305 306 304 308 311 312 310 310 309 304 299 299 299 298 293 298 299 299 297 298 287 264 255 263 251 261 213 222
222 204 208 218 228 145 132 133 121 149 209 234 222 241 276 297 292 292 296 298 299 300 298 295 292 288 285 284 279 276 274 272 269 266 263 261 264 263 256 236 216 209 185 172 150 245 283 290 303 306 305 319 324 320 317 315 312 311 311 311 308 307 309 309 311 310 310 308 304 304 303 299 290 289 299 299 293 293 290 290 280 275 261 262 265 280 196
224 200 201 219 158 139 138 162 185 192 213 227 251 275 267 272 291 294 298 301 305 302 299 299 297 294 297 293 290 283 276 270 264 261 260 265 266 262 240 193 168 156 144 142 158 204 264 297 304 302 305 315 319 314 310 308 306 307 307 307 302 305 312 313 312 313 313 310 309 311 311 305 302 300 293 292 296 292 287 277 278 274 269 258 236 240 245
198 180 187 175 169 173 197 217 199 199 209 234 231 267 290 279 277 294 298 303 305 305 306 305 304 303 312 310 300 292 278 262 255 257 258 259 255 230 193 172 176 194 178 159 169 242 282 305 302 303 308 313 310 303 301 298 299 297 305 301 299 302 304 301 308 313 312 313 319 326 323 319 313 308 296 290 283 285 282 280 272 267 268 270 254 241 241
128 142 149 161 175 185 209 211 204 225 229 233 264 275 267 283 298 297 303 309 307 306 310 312 315 321 320 313 304 291 280 259 247 252 254 241 207 177 156 145 116 108 108 100 69 22 355 327 312 310 306 301 304 304 294 291 288 295 308 306 302 305 302 307 315 312 312 316 326 329 328 324 319 316 311 305 302 294 292 290 280 267 264 260 263 258 254
134 104 118 171 163 186 214 213 197 225 224 234 239 246 266 262 275 292 301 302 305 312 318 318 324 325 328 326 326 317 295 279 273 251 139 84 62 70 93 83 84 93 84 67 28 340 309 296 299 290 301 316 310 304 296 294 288 297 306 304 305 306 312 316 307 308 308 322 330 334 332 328 320 318 311 312 307 301 290 278 273 271 258 257 257 262 264
181 192 188 180 175 183 197 214 198 212 229 238 251 263 280 287 289 299 301 304 317 322 322 325 339 339 337 342 352 5 16 21 41 42 29 30 35 39 58 83 83 72 67 40 13 337 307 288 296 293 318 328 311 303 293 292 287 296 303 306 309 307 313 314 310 306 308 328 335 338 339 336 334 324 319 317 313 307 294 282 276 266 260 255 253 242 236
194 186 151 165 178 180 175 170 175 193 201 223 264 258 250 271 294 295 320 329 326 325 324 337 348 354 2 356 3 13 27 32 18 19 25 19 20 22 23 42 53 57 47 34 5 338 315 312 299 329 347 331 316 306 301 291 294 306 305 311 313 310 314 313 315 310 315 328 341 348 350 351 347 336 330 327 323 318 310 306 297 293 286 264 246 229 219
164 137 117 130 153 152 150 156 169 174 179 189 204 222 261 274 294 323 326 319 316 326 338 345 346 14 16 10 5 8 17 18 18 16 18 8 10 14 18 20 358 2 38 22 6 343 327 308 356 2 353 335 328 322 312 305 306 310 304 317 318 315 312 315 315 316 322 339 1 5 0 1 360 352 345 338 332 330 332 325 317 311 303 293 272 210 196
179 156 149 145 154 154 157 161 166 162 170 176 190 216 272 311 320 311 317 321 330 335 343 349 353 18 28 14 7 9 15 10 6 8 11 3 1 18 23 17 360 354 25 23 356 334 326 318 9 16 356 328 330 323 318 317 320 329 320 311 316 319 316 318 318 321 329 352 16 18 17 15 14 5 359 353 342 346 353 354 356 2 3 4 9 7 22
184 154 149 152 156 157 168 176 171 161 146 146 161 136 105 1 330 337 331 335 341 339 353 5 1 10 17 14 14 15 13 11 9 5 359 6 5 15 23 10 3 353 5 13 351 335 314 343 11 17 330 326 317 328 319 323 330 337 323 321 320 329 325 329 326 329 342 356 22 31 29 28 20 15 7 1 2 1 2 9 18 19 17 22 26 34 36
11 67 118 136 143 149 142 135 143 155 158 163 189 187 90 57 24 23 11 2 345 357 6 16 13 20 18 11 8 13 15 8 5 360 358 354 358 11 15 4 356 344 329 338 1 335 340 352 358 349 336 322 323 326 325 331 339 337 326 328 331 340 354 351 342 344 351 9 32 46 41 38 33 23 17 10 10 15 21 29 29 31 34 33 36 40 41
223 183 159 148 155 156 145 157 161 173 178 154 137 134 116 90 51 39 25 16 360 10 19 30 31 32 25 25 19 12 2 4 5 2 359 349 353 356 359 3 356 336 329 359 5 339 355 359 350 327 329 318 314 312 335 344 354 338 321 335 349 5 9 12 4 1 10 13 32 44 48 44 41 33 30 26 22 21 22 29 34 36 38 41 43 43 47
228 193 173 168 168 163 158 150 163 176 158 155 143 138 129 122 115 72 36 23 357 4 14 30 42 32 26 20 21 14 2 355 359 11 4 4 8 2 6 4 347 335 325 4 7 2 359 355 347 350 331 333 305 348 353 356 355 325 327 345 6 17 28 25 23 16 14 25 37 41 47 46 45 44 42 39 35 34 35 40 41 42 44 46 47 47 50
229 203 168 166 168 169 162 145 136 139 154 155 145 132 138 137 123 126 142 348 20 18 26 26 48 43 27 18 13 12 7 357 352 355 18 20 11 0 3 353 344 331 352 11 10 2 353 343 341 339 343 354 351 360 12 8 347 341 337 353 29 32 44 44 37 23 23 32 40 40 49 57 55 52 51 50 45 45 44 47 48 48 49 49 52 50 53
205 200 185 175 169 156 143 144 151 164 160 150 150 147 144 135 120 116 74 57 41 35 37 20 26 30 25 6 4 5 1 350 358 353 358 23 19 6 356 347 338 345 5 17 11 2 360 343 342 327 2 9 5 7 15 2 354 356 3 12 41 48 51 48 42 34 33 30 38 47 49 52 56 56 52 54 54 50 57 58 56 55 54 54 53 50 48
181 200 199 169 155 150 142 143 147 141 139 155 155 134 122 117 128 129 118 74 43 41 41 18 25 27 21 14 10 6 355 352 355 353 349 2 25 19 3 358 349 353 4 14 9 7 358 356 351 5 9 14 16 17 13 351 360 17 28 36 45 53 58 59 49 45 46 53 51 54 56 61 57 58 63 55 48 52 56 63 66 68 70 66 63 61 59
196 175 178 187 151 141 142 147 153 164 164 141 133 127 122 118 105 94 97 74 66 50 35 32 27 23 15 10 9 355 346 352 354 1 14 13 19 17 358 10 5 0 0 13 7 7 350 7 14 13 16 19 20 16 358 355 10 25 30 35 45 43 44 51 55 56 54 45 47 65 71 70 68 66 69 70 67 59 64 73 75 76 78 80 73 69 66
174 142 159 185 149 150 156 154 143 126 120 124 119 115 117 128 120 104 86 90 76 63 31 11 26 10 358 0 2 6 358 354 356 4 18 12 19 2 3 21 12 18 15 12 1 5 0 17 20 17 17 23 19 6 359 8 20 24 26 27 46 52 49 48 50 55 59 60 56 43 41 57 76 79 76 74 74 73 75 79 83 81 81 85 85 79 74
161 152 156 188 152 142 132 125 128 123 120 128 135 139 138 131 118 111 99 99 108 67 26 6 359 339 322 330 358 22 7 355 1 360 4 355 15 26 21 25 24 21 21 13 7 10 16 16 20 20 19 17 14 3 1 3 13 24 34 41 39 51 56 60 60 58 56 56 56 59 66 67 64 68 76 74 73 73 77 75 76 80 80 81 82 83 83
146 158 143 168 162 134 126 122 122 134 153 168 163 144 138 124 111 102 99 83 63 49 33 4 358 350 353 350 347 44 243 304 24 15 353 3 354 345 16 34 34 33 28 21 20 17 22 21 23 25 22 16 6 358 3 7 17 24 33 35 35 34 42 51 53 55 58 60 57 47 36 37 50 62 70 74 71 65 64 62 63 62 70 79 82 81 81
126 120 122 175 157 132 130 132 134 144 174 168 135 138 134 125 114 108 90 64 50 43 20 11 8 4 0 3 20 15 357 340 58 46 12 17 3 3 35 44 41 40 35 29 22 10 23 25 23 26 23 12 359 1 1 4 18 31 32 39 40 42 42 43 45 46 53 58 59 58 60 59 59 61 69 71 73 70 66 60 60 65 70 76 80 81 81
112 107 107 164 141 125 129 121 129 158 161 144 140 137 131 123 107 93 88 63 104 81 50 22 23 17 17 11 8 13 25 22 23 43 42 32 21 28 31 41 49 46 44 39 30 23 17 21 22 24 19 10 6 11 6 8 11 23 30 35 38 41 42 45 49 51 55 56 59 63 61 57 57 64 68 70 69 68 66 62 61 64 68 70 69 69 67
100 92 79 87 111 92 89 135 155 157 148 142 138 141 133 124 132 126 102 68 37 56 37 24 31 24 24 23 24 18 28 23 49 86 67 39 38 45 45 42 44 54 52 47 37 34 24 17 12 20 16 15 11 13 20 18 8 18 29 34 36 41 41 41 45 47 51 55 56 57 57 56 57 58 55 57 63 62 59 60 55 49 43 45 52 57 61
82 92 103 104 87 103 131 115 109 117 122 126 131 127 117 116 102 95 95 106 90 83 85 74 47 9 30 37 34 31 18 39 32 20 61 62 47 52 46 45 45 50 46 43 38 45 48 41 33 25 24 19 16 11 21 29 22 20 22 28 37 42 46 45 41 42 40 40 43 49 52 50 47 49 47 44 51 59 61 59 60 61 58 53 54 59 67